When you browse on this site, cookies collect data to enhance your experience and personalize the content and advertising you see.
Visit our Privacy Policy to learn more. By continuing to use the site, you agree to this use of cookies and data.
  • In Hungary
  • List of Countries
  • For 7 days
  • Water Temperature
  • Satellite Maps
  • Weather Map
  • News
  • Weather Widgets
  • user-avatar
    Login

    Hourly Weather Ardea

    Today, 15 December, Saturday

    Time Temperature Precipitation Wind Pressure Humidity
    00:00 +8°C° 0.4 mm 5 mps 756 mmHg 86%
    01:00 +8°C° 0 mm 5 mps 756 mmHg 88%
    02:00 +8°C° 0.2 mm 5 mps 756 mmHg 86%
    03:00 +8°C° 0.2 mm 6 mps 756 mmHg 85%
    04:00 +7°C° 0.2 mm 6 mps 756 mmHg 83%
    05:00 +7°C° 0 mm 6 mps 756 mmHg 83%
    06:00 +5°C° 0 mm 6 mps 757 mmHg 82%
    07:00 +5°C° 0 mm 6 mps 757 mmHg 82%
    08:00 +7°C° 0 mm 6 mps 757 mmHg 79%
    09:00 +7°C° 0 mm 6 mps 757 mmHg 76%
    10:00 +8°C° 0 mm 6 mps 758 mmHg 73%
    11:00 +9°C° 0 mm 6 mps 758 mmHg 70%
    12:00 +9°C° 0 mm 6 mps 758 mmHg 67%
    13:00 +10°C° 0 mm 6 mps 758 mmHg 65%
    14:00 +10°C° 0 mm 6 mps 758 mmHg 65%
    15:00 +9°C° 0 mm 6 mps 759 mmHg 66%
    16:00 +9°C° 0 mm 7 mps 759 mmHg 66%
    17:00 +8°C° 0 mm 6 mps 760 mmHg 67%
    18:00 +7°C° 0 mm 6 mps 760 mmHg 68%
    19:00 +5°C° 0 mm 6 mps 760 mmHg 69%
    20:00 +5°C° 0 mm 5 mps 761 mmHg 69%
    21:00 +5°C° 0 mm 5 mps 761 mmHg 69%
    22:00 +5°C° 0 mm 4 mps 761 mmHg 69%
    23:00 +4°C° 0 mm 4 mps 761 mmHg 68%

    Tomorrow, 16 December, Sunday

    Time Temperature Precipitation Wind Pressure Humidity
    00:00 +4°C° 0 mm 4 mps 762 mmHg 67%
    01:00 +4°C° 0 mm 3 mps 762 mmHg 66%
    02:00 +4°C° 0 mm 3 mps 762 mmHg 65%
    03:00 +4°C° 0 mm 3 mps 762 mmHg 64%
    04:00 +5°C° 0 mm 2 mps 762 mmHg 62%
    05:00 +5°C° 0 mm 2 mps 762 mmHg 62%
    06:00 +5°C° 0 mm 2 mps 762 mmHg 62%
    07:00 +5°C° 0 mm 2 mps 762 mmHg 61%
    08:00 +6°C° 0 mm 2 mps 762 mmHg 58%
    09:00 +8°C° 0 mm 1 mps 762 mmHg 56%
    10:00 +9°C° 0 mm 1 mps 762 mmHg 53%
    11:00 +10°C° 0 mm 1 mps 762 mmHg 50%
    12:00 +11°C° 0 mm 1 mps 762 mmHg 47%
    13:00 +12°C° 0 mm 1 mps 762 mmHg 44%
    14:00 +11°C° 0 mm 1 mps 762 mmHg 47%
    15:00 +10°C° 0 mm 2 mps 762 mmHg 50%
    16:00 +10°C° 0 mm 2 mps 761 mmHg 53%
    17:00 +9°C° 0 mm 3 mps 761 mmHg 57%
    18:00 +9°C° 0 mm 3 mps 761 mmHg 61%
    19:00 +7°C° 0 mm 4 mps 761 mmHg 65%
    20:00 +8°C° 0.2 mm 5 mps 761 mmHg 68%
    21:00 +8°C° 0.2 mm 6 mps 760 mmHg 72%
    22:00 +8°C° 0.2 mm 7 mps 760 mmHg 75%
    23:00 +8°C° 0.9 mm 7 mps 759 mmHg 78%

    Day after tomorrow, 17 December, Monday

    Time Temperature Precipitation Wind Pressure Humidity
    00:00 +8°C° 0.9 mm 7 mps 758 mmHg 80%
    01:00 +9°C° 0.9 mm 8 mps 757 mmHg 83%
    02:00 +9°C° 1.6 mm 7 mps 757 mmHg 85%
    03:00 +10°C° 1.6 mm 7 mps 756 mmHg 88%
    04:00 +10°C° 1.6 mm 7 mps 756 mmHg 91%
    05:00 +10°C° 0.6 mm 7 mps 756 mmHg 91%
    06:00 +11°C° 0.6 mm 7 mps 756 mmHg 91%
    07:00 +11°C° 0.6 mm 7 mps 756 mmHg 91%
    08:00 +11°C° 0.1 mm 6 mps 756 mmHg 89%
    09:00 +11°C° 0.1 mm 6 mps 756 mmHg 87%
    10:00 +11°C° 0.1 mm 6 mps 757 mmHg 85%
    11:00 +11°C° 0 mm 6 mps 757 mmHg 82%
    12:00 +11°C° 0 mm 6 mps 757 mmHg 79%
    13:00 +11°C° 0 mm 6 mps 757 mmHg 76%
    14:00 +11°C° 0 mm 7 mps 757 mmHg 77%
    15:00 +10°C° 0 mm 7 mps 757 mmHg 78%
    16:00 +10°C° 0 mm 7 mps 758 mmHg 79%
    17:00 +9°C° 0 mm 7 mps 758 mmHg 78%
    18:00 +9°C° 0 mm 8 mps 759 mmHg 78%
    19:00 +7°C° 0 mm 8 mps 760 mmHg 78%
    20:00 +7°C° 0.1 mm 8 mps 760 mmHg 77%
    21:00 +7°C° 0.1 mm 8 mps 761 mmHg 77%
    22:00 +7°C° 0.1 mm 8 mps 761 mmHg 76%
    23:00 +6°C° 0 mm 8 mps 762 mmHg 75%

    18 December, Tuesday

    Time Temperature Precipitation Wind Pressure Humidity
    00:00 +6°C° 0 mm 8 mps 762 mmHg 74%
    01:00 +6°C° 0 mm 8 mps 763 mmHg 73%
    02:00 +6°C° 0 mm 8 mps 763 mmHg 72%
    03:00 +5°C° 0 mm 9 mps 764 mmHg 72%
    04:00 +5°C° 0 mm 9 mps 764 mmHg 71%
    05:00 +5°C° 0 mm 8 mps 765 mmHg 71%
    06:00 +5°C° 0 mm 8 mps 765 mmHg 71%
    07:00 +5°C° 0 mm 8 mps 766 mmHg 71%
    08:00 +6°C° 0 mm 7 mps 766 mmHg 69%
    09:00 +8°C° 0 mm 7 mps 766 mmHg 67%
    10:00 +8°C° 0 mm 6 mps 767 mmHg 65%
    11:00 +9°C° 0 mm 6 mps 767 mmHg 61%
    12:00 +10°C° 0 mm 6 mps 766 mmHg 57%
    13:00 +12°C° 0 mm 5 mps 766 mmHg 52%
    14:00 +12°C° 0 mm 5 mps 766 mmHg 55%
    15:00 +11°C° 0 mm 4 mps 766 mmHg 57%
    16:00 +11°C° 0 mm 4 mps 767 mmHg 60%
    17:00 +10°C° 0 mm 4 mps 767 mmHg 62%
    18:00 +9°C° 0 mm 3 mps 767 mmHg 64%
    19:00 +8°C° 0 mm 3 mps 767 mmHg 66%
    20:00 +8°C° 0 mm 3 mps 767 mmHg 64%
    21:00 +7°C° 0 mm 2 mps 767 mmHg 61%
    22:00 +7°C° 0 mm 2 mps 767 mmHg 59%
    23:00 +7°C° 0 mm 2 mps 767 mmHg 57%

    19 December, Wednesday

    Time Temperature Precipitation Wind Pressure Humidity
    00:00 +7°C° 0 mm 2 mps 767 mmHg 54%
    01:00 +7°C° 0 mm 2 mps 767 mmHg 51%
    02:00 +7°C° 0 mm 2 mps 766 mmHg 50%
    03:00 +7°C° 0 mm 2 mps 766 mmHg 48%
    04:00 +6°C° 0 mm 2 mps 766 mmHg 47%
    05:00 +6°C° 0 mm 2 mps 766 mmHg 46%
    06:00 +7°C° 0 mm 1 mps 766 mmHg 45%
    07:00 +7°C° 0 mm 1 mps 766 mmHg 45%
    08:00 +9°C° 0 mm 1 mps 766 mmHg 45%
    09:00 +10°C° 0 mm 1 mps 766 mmHg 45%
    10:00 +11°C° 0 mm 1 mps 766 mmHg 44%
    11:00 +12°C° 0 mm 1 mps 766 mmHg 45%
    12:00 +12°C° 0 mm 1 mps 765 mmHg 45%
    13:00 +13°C° 0 mm 1 mps 765 mmHg 45%
    14:00 +13°C° 0 mm 1 mps 765 mmHg 49%
    15:00 +12°C° 0 mm 1 mps 765 mmHg 53%
    16:00 +10°C° 0 mm 2 mps 765 mmHg 58%
    17:00 +10°C° 0 mm 2 mps 765 mmHg 60%
    18:00 +10°C° 0 mm 2 mps 765 mmHg 62%
    19:00 +9°C° 0 mm 3 mps 765 mmHg 64%
    20:00 +9°C° 0 mm 3 mps 765 mmHg 64%
    21:00 +9°C° 0 mm 3 mps 765 mmHg 64%
    22:00 +8°C° 0 mm 4 mps 765 mmHg 65%
    23:00 +8°C° 0 mm 4 mps 764 mmHg 64%

    20 December, Thursday

    Time Temperature Precipitation Wind Pressure Humidity
    00:00 +8°C° 0 mm 4 mps 764 mmHg 63%
    01:00 +8°C° 0 mm 4 mps 764 mmHg 62%
    02:00 +8°C° 0 mm 5 mps 763 mmHg 62%
    03:00 +8°C° 0 mm 5 mps 763 mmHg 62%
    04:00 +8°C° 0 mm 6 mps 763 mmHg 62%
    05:00 +8°C° 0.2 mm 6 mps 762 mmHg 65%
    06:00 +9°C° 0.2 mm 7 mps 762 mmHg 68%
    07:00 +9°C° 0.2 mm 7 mps 762 mmHg 71%
    08:00 +9°C° 1.4 mm 7 mps 761 mmHg 76%
    09:00 +10°C° 1.4 mm 8 mps 761 mmHg 80%
    10:00 +10°C° 1.4 mm 8 mps 761 mmHg 84%
    11:00 +11°C° 1.9 mm 8 mps 760 mmHg 83%
    12:00 +11°C° 1.9 mm 8 mps 760 mmHg 82%
    13:00 +11°C° 1.9 mm 8 mps 760 mmHg 80%
    14:00 +11°C° 0.4 mm 7 mps 760 mmHg 80%
    15:00 +11°C° 0.4 mm 7 mps 760 mmHg 80%
    16:00 +11°C° 0.4 mm 6 mps 760 mmHg 79%
    17:00 +10°C° 0.5 mm 5 mps 761 mmHg 81%
    18:00 +10°C° 0.5 mm 5 mps 761 mmHg 82%
    19:00 +10°C° 0.5 mm 4 mps 761 mmHg 84%
    20:00 +10°C° 0.3 mm 4 mps 762 mmHg 85%
    21:00 +8°C° 0.3 mm 4 mps 762 mmHg 85%
    22:00 +9°C° 0.3 mm 3 mps 762 mmHg 86%
    23:00 +8°C° 0.6 mm 4 mps 762 mmHg 86%
    Show more